Overview Statistics Trail Chart Weather Telemetry Raw packets
 

This is the latest recevied weather packets stored in our database for station/object DF1GD-10. If no packets are shown the sender has not sent any weather packets the latest 10 day(s).

<< 12 13 14 15 16 17 18 >>
Time Temp. Humidity Pressure Rain* Wind** Luminosity Snow
1788401609 13.33° C 61% 1021.8 hPa - - - -
1788400694 12.78° C 62% 1021.8 hPa - - - -
1788398894 13.89° C 60% 1021.8 hPa - - - -
1788397994 13.33° C 61% 1021.8 hPa - - - -
1788397093 13.33° C 60% 1021.7 hPa - - - -
1788396193 13.33° C 61% 1021.8 hPa - - - -
1788395293 13.89° C 60% 1021.8 hPa - - - -
1788394393 14.44° C 58% 1021.7 hPa - - - -
1788393493 15° C 56% 1021.6 hPa - - - -
1788392593 15° C 55% 1021.6 hPa - - - -
1788391693 15.56° C 54% 1021.5 hPa - - - -
1788390792 15.56° C 53% 1021.5 hPa - - - -
1788389892 15.56° C 53% 1021.5 hPa - - - -
1788388992 16.11° C 52% 1021.5 hPa - - - -
1788388092 16.67° C 51% 1021.4 hPa - - - -
1788387192 16.67° C 49% 1021.4 hPa - - - -
1788386292 17.22° C 48% 1021.3 hPa - - - -
1788385392 17.22° C 49% 1021.2 hPa - - - -
1788384491 17.78° C 44% 1021.2 hPa - - - -
1788383591 18.33° C 44% 1021.1 hPa - - - -
1788382691 18.33° C 43% 1021 hPa - - - -
1788381791 18.89° C 43% 1021.1 hPa - - - -
1788380891 18.89° C 42% 1021 hPa - - - -
1788379991 18.89° C 41% 1020.8 hPa - - - -
1788379091 19.44° C 41% 1020.7 hPa - - - -

* Rain since midnight (hover to see other rain measurements)
** Current wind speed in m/s (hover to see current wind gust speed)